SES-5 (38652 NORAD) Tracking and Keplerian Element Data

This shows tracking and keplerian element data for the satellite.

Feedback or suggestion? Click here.




ElementValue
Catalog38652
NameSES-5
Epoch Orbit3707
Epoch Day159.87660264
Epoch Year2024
RAAN316.9386
Inclination0.038
Eccentricity0.0001726
Argument of Perigee123.2836
Mean Anonmoly137.0736
Mean Motion1.00273106
Decay Rate3.4E-07
L11 38652U 12036A 24159.87660264 .00000034 00000+0 00000+0 0 9991
L22 38652 0.0380 316.9386 0001726 123.2836 137.0736 1.00273106 37078



Live tracking and technical data element details for SES-5 (NORAD 38652). SES-5 can be tracked NOW for your location showing map with azimuth and elevation plus other details from your city location.







IsCatalogInMostPopularTable: catalog: 38652, numindb: 617
Update: records affected: 1



GetName: 38652 SES-5

Hit Count: updated at: Tue, 18 Jun 2024 00:04:09 GMT